Regional Weather Roundup
Issued by NWS

Home | Current Version | Previous Version | Graphics & Text | Print | Product List | Glossary On
Versions: 1 2 3 4 5 6 7 8 9 10 11 12 13 14 15 16 17 18 19 20 21 22 23 24 25 26 27 28 29 30 31 32 33 34 35 36 37 38 39 40 41 42 43 44 45 46 47 48 49 50
000
ASUS43 KLSX 191659
RWRMO

WEATHER SUMMARY FOR MISSOURI
NATIONAL WEATHER SERVICE SPRINGFIELD MO
1200 PM CDT SAT APR 19 2014

NOTE: "FAIR" INDICATES FEW OR NO CLOUDS BELOW 12,000 FEET WITH NO
       SIGNIFICANT WEATHER AND/OR OBSTRUCTIONS TO VISIBILITY.
       CURRENT SKY AND/OR WEATHER CONDITIONS ARE NOT AVAILABLE FOR
       CHILLICOTHE AND FARMINGTON.

MOZ001>031-035>038-043-044-053-054-191800-
...NORTHERN AND WESTERN MISSOURI...

CITY           SKY/WX    TMP DP  RH WIND       PRES   REMARKS
KANSAS CTY INT PTSUNNY   73  43  33 SW23G30   30.14F
KANSAS C DTWN  MOSUNNY   74  45  35 S14       30.14F
LEE`S SUMMIT   MOSUNNY   71  45  39 S15G25    30.17S
ST JOSEPH      MOSUNNY   73  42  32 S18G29    30.12F
KIRKSVILLE     SUNNY     71  44  37 S15       30.22S

$$
MOZ066>068-077>081-088>096-101>105-191800-
...SOUTHWEST MISSOURI...

CITY           SKY/WX    TMP DP  RH WIND       PRES   REMARKS
SPRINGFIELD    SUNNY     69  45  41 S13       30.23S
JOPLIN         MOSUNNY   72  44  36 S13G26    30.20F

$$
MOZ032>034-039>042-045>050-055>058-069>072-191800-
...CENTRAL MISSOURI...

CITY           SKY/WX    TMP DP  RH WIND       PRES   REMARKS
COLUMBIA       SUNNY     72  44  36 S12       30.23F
JEFFERSON CITY SUNNY     71  43  36 S9        30.22F
ROLLA          SUNNY     70  44  39 VRB7      30.23F
SEDALIA        SUNNY     73  47  39 S14       30.21F
OSAGE BEACH    SUNNY     72  39  30 SW9G17    30.24F

$$
MOZ051-052-059>065-191800-
...EAST CENTRAL MISSOURI...

CITY           SKY/WX    TMP DP  RH WIND       PRES   REMARKS
ST LOUIS INTL  PTSUNNY   70  42  36 SE9       30.28F
SPIRIT OF STL  SUNNY     70  42  36 SE7       30.25F
ST CHARLES     SUNNY     70  44  39 SE13      30.26F

$$
MOZ072>076-082>087-097>100-106>115-191800-
...SOUTH CENTRAL AND SOUTHEAST MISSOURI...

CITY           SKY/WX    TMP DP  RH WIND       PRES   REMARKS
CAPE GIRARDEAU SUNNY     72  43  35 VRB5      30.24F
FARMINGTON     SUNNY     68  39  34 E6        30.29F
POPLAR BLUFF   SUNNY     73  44  35 VRB6      30.24F
WEST PLAINS    SUNNY     68  41  37 VRB5      30.26F

$$



USA.gov is the U.S. government's official web portal to all federal, state and local government web resources and services.